Trenton, NJ

11:34 AM EDT on June 24, 2017 (GMT -0400)
Trenton Mercer

Weather History for KTTN - August, 2013

Change the Weather History Date:

Monday, August 19, 2013

  Actual Average Record
Temperature  
Mean Temperature 70 °F 74 °F  
Max Temperature 77 °F 83 °F 95 °F (2002)
Min Temperature 62 °F 64 °F 54 °F (1943)
Degree Days  
Heating Degree Days 0 0  
Month to date heating degree days 0 0  
Since 1 June heating degree days 4 24  
Since 1 July heating degree days 0 0  
Cooling Degree Days 5 9  
Month to date cooling degree days 118 185  
Year to date cooling degree days 840 762  
Since 1 June cooling degree days 750 705  
Growing Degree Days 20 (Base 50)    
Moisture  
Dew Point 62 °F    
Average Humidity 78    
Maximum Humidity 100    
Minimum Humidity 56    
Precipitation  
Precipitation T in 0.14 in 3.51 in (1939)
Month to date precipitation 3.10 2.65  
Year to date precipitation 31.52 29.53  
Sea Level Pressure  
Sea Level Pressure 30.09 in    
Wind  
Wind Speed 4 mph (West)    
Max Wind Speed 9 mph    
Max Gust Speed 22 mph    
Visibility 8 miles    
Events Rain    
T = Trace of Precipitation, MM = Missing Value Source: NWS Daily Summary

Daily Weather History Graph

Daily Weather History Graph

Search for Another Location

Airport or City:

Trip Planner

Search our weather history database for the weather conditions in past years. The results will help you decide how hot, cold, wet, or windy it might be!

Date:

Astronomy

Aug. 19, 2013 Rise Set
Actual Time 6:14 AM EDT 7:50 PM EDT
Civil Twilight 5:45 AM EDT 8:19 PM EDT
Nautical Twilight 5:10 AM EDT 8:53 PM EDT
Astronomical Twilight 4:33 AM EDT 9:30 PM EDT
Moon 6:39 PM EDT (8/19) 4:30 AM EDT (8/19)
Length of Visible Light 14h 33m
Length of Day
13h 36m
Waxing Gibbous, 97% of the Moon is Illuminated
Aug 19
Waxing Gibbous
Aug 20
Full
Aug 28
Last Quarter
Sep 5
New
Sep 12
First Quarter

Hourly Weather History & Observations

Time (EDT) Temp. Dew Point Humidity Pressure Visibility Wind Dir Wind Speed Gust Speed Precip Events Conditions
12:53 AM 64.0 °F 62.1 °F 93% 30.13 in 5.0 mi Calm Calm - N/A   Clear
1:53 AM 64.0 °F 62.1 °F 93% 30.12 in 4.0 mi Calm Calm - N/A   Clear
2:38 AM 62.6 °F 60.8 °F 94% 30.14 in 2.0 mi SW 4.6 mph - N/A   Clear
2:48 AM 62.6 °F 62.6 °F 100% 30.14 in 4.0 mi Calm Calm - N/A   Clear
2:53 AM 63.0 °F 62.1 °F 97% 30.12 in 5.0 mi Calm Calm - N/A   Scattered Clouds
3:53 AM 63.0 °F 61.0 °F 93% 30.11 in 7.0 mi Calm Calm - N/A   Clear
4:53 AM 63.0 °F 60.1 °F 90% 30.11 in 8.0 mi NW 5.8 mph - N/A   Clear
5:53 AM 62.1 °F 60.1 °F 93% 30.12 in 7.0 mi Calm Calm - 0.01 in   Clear
6:53 AM 63.0 °F 60.1 °F 90% 30.12 in 7.0 mi Calm Calm - N/A   Clear
7:53 AM 64.9 °F 61.0 °F 87% 30.12 in 8.0 mi WNW 4.6 mph - N/A   Clear
8:53 AM 66.9 °F 60.1 °F 79% 30.11 in 10.0 mi West 5.8 mph - N/A   Clear
9:53 AM 72.0 °F 60.1 °F 66% 30.10 in 10.0 mi West 4.6 mph - N/A   Clear
10:53 AM 72.0 °F 59.0 °F 64% 30.10 in 10.0 mi Variable 5.8 mph - N/A   Clear
11:53 AM 73.0 °F 60.1 °F 64% 30.09 in 10.0 mi WSW 4.6 mph - N/A   Clear
12:53 PM 73.0 °F 60.1 °F 64% 30.07 in 10.0 mi WSW 4.6 mph - N/A   Clear
1:53 PM 73.9 °F 60.1 °F 62% 30.07 in 10.0 mi West 4.6 mph - N/A   Clear
2:53 PM 73.9 °F 60.1 °F 62% 30.06 in 10.0 mi West 4.6 mph - N/A   Partly Cloudy
3:53 PM 77.0 °F 61.0 °F 58% 30.06 in 10.0 mi West 8.1 mph - N/A   Clear
4:53 PM 75.0 °F 63.0 °F 66% 30.05 in 10.0 mi West 6.9 mph - 0.00 in Rain Light Rain
5:53 PM 73.9 °F 64.0 °F 71% 30.05 in 10.0 mi West 3.5 mph - 0.00 in   Clear
6:53 PM 73.9 °F 64.9 °F 73% 30.05 in 10.0 mi West 5.8 mph - N/A   Overcast
7:53 PM 73.0 °F 64.0 °F 73% 30.04 in 10.0 mi West 4.6 mph - N/A   Overcast
8:53 PM 71.1 °F 64.0 °F 78% 30.04 in 10.0 mi Calm Calm - N/A   Clear
9:53 PM 69.1 °F 64.0 °F 84% 30.06 in 10.0 mi West 3.5 mph - N/A   Clear
10:53 PM 69.1 °F 64.0 °F 84% 30.06 in 10.0 mi WSW 3.5 mph - N/A   Clear
11:53 PM 68.0 °F 64.0 °F 87% 30.07 in 10.0 mi NW 5.8 mph - N/A   Clear